Meteo orario Zagorze

Oggi, 5 Dicembre, Sabato

Tempo Temperatura Precipitazioni Vento Pressione Umidità
00:00 +2°C° 0 mm 6 m/s 731 mm Hg 80%
01:00 +2°C° 0 mm 6 m/s 731 mm Hg 82%
02:00 +2°C° 0 mm 6 m/s 731 mm Hg 83%
03:00 +2°C° 0 mm 6 m/s 731 mm Hg 83%
04:00 +2°C° 0 mm 6 m/s 731 mm Hg 83%
05:00 +2°C° 0 mm 6 m/s 732 mm Hg 84%
06:00 +2°C° 0 mm 6 m/s 732 mm Hg 85%
07:00 +2°C° 0 mm 7 m/s 732 mm Hg 85%
08:00 +3°C° 0 mm 7 m/s 732 mm Hg 84%
09:00 +4°C° 0 mm 7 m/s 733 mm Hg 82%
10:00 +5°C° 0 mm 7 m/s 733 mm Hg 80%
11:00 +6°C° 0 mm 7 m/s 733 mm Hg 79%
12:00 +6°C° 0 mm 7 m/s 734 mm Hg 77%
13:00 +8°C° 0 mm 6 m/s 734 mm Hg 76%
14:00 +7°C° 0 mm 6 m/s 734 mm Hg 78%
15:00 +7°C° 0 mm 6 m/s 734 mm Hg 80%
16:00 +5°C° 0 mm 7 m/s 735 mm Hg 82%
17:00 +5°C° 0 mm 6 m/s 735 mm Hg 82%
18:00 +4°C° 0 mm 6 m/s 735 mm Hg 83%
19:00 +4°C° 0 mm 6 m/s 735 mm Hg 84%
20:00 +4°C° 0 mm 6 m/s 735 mm Hg 84%
21:00 +4°C° 0 mm 6 m/s 735 mm Hg 84%
22:00 +4°C° 0 mm 6 m/s 735 mm Hg 84%
23:00 +4°C° 0 mm 6 m/s 736 mm Hg 84%

Domani, 6 Dicembre, Domenica

Tempo Temperatura Precipitazioni Vento Pressione Umidità
00:00 +4°C° 0 mm 6 m/s 736 mm Hg 85%
01:00 +4°C° 0 mm 6 m/s 736 mm Hg 85%
02:00 +4°C° 0 mm 6 m/s 736 mm Hg 85%
03:00 +4°C° 0 mm 6 m/s 736 mm Hg 86%
04:00 +5°C° 0 mm 5 m/s 736 mm Hg 86%
05:00 +4°C° 0 mm 6 m/s 736 mm Hg 86%
06:00 +4°C° 0 mm 6 m/s 736 mm Hg 86%
07:00 +4°C° 0 mm 6 m/s 736 mm Hg 85%
08:00 +5°C° 0 mm 6 m/s 736 mm Hg 83%
09:00 +5°C° 0 mm 7 m/s 736 mm Hg 80%
10:00 +6°C° 0 mm 7 m/s 736 mm Hg 77%
11:00 +8°C° 0 mm 7 m/s 736 mm Hg 75%
12:00 +8°C° 0 mm 7 m/s 736 mm Hg 72%
13:00 +9°C° 0 mm 7 m/s 736 mm Hg 70%
14:00 +8°C° 0 mm 7 m/s 736 mm Hg 74%
15:00 +5°C° 0 mm 7 m/s 736 mm Hg 79%
16:00 +4°C° 0 mm 7 m/s 735 mm Hg 83%
17:00 +4°C° 0 mm 7 m/s 735 mm Hg 84%
18:00 +3°C° 0 mm 7 m/s 736 mm Hg 85%
19:00 +3°C° 0 mm 7 m/s 736 mm Hg 86%
20:00 +2°C° 0 mm 7 m/s 735 mm Hg 87%
21:00 +1°C° 0 mm 8 m/s 735 mm Hg 87%
22:00 +1°C° 0 mm 8 m/s 735 mm Hg 87%
23:00 +1°C° 0 mm 8 m/s 735 mm Hg 87%

Dopodomani, 7 Dicembre, Lunedi

Tempo Temperatura Precipitazioni Vento Pressione Umidità
00:00 0°C° 0 mm 8 m/s 735 mm Hg 86%
01:00 0°C° 0 mm 8 m/s 735 mm Hg 85%
02:00 0°C° 0 mm 8 m/s 734 mm Hg 86%
03:00 0°C° 0 mm 8 m/s 734 mm Hg 86%
04:00 -1°C° 0 mm 8 m/s 734 mm Hg 86%
05:00 -1°C° 0 mm 8 m/s 734 mm Hg 86%
06:00 -1°C° 0 mm 8 m/s 733 mm Hg 86%
07:00 -2°C° 0 mm 8 m/s 733 mm Hg 85%
08:00 -2°C° 0 mm 8 m/s 733 mm Hg 83%
09:00 -1°C° 0 mm 8 m/s 734 mm Hg 80%
10:00 -1°C° 0 mm 8 m/s 734 mm Hg 77%
11:00 -1°C° 0 mm 8 m/s 734 mm Hg 75%
12:00 -1°C° 0 mm 8 m/s 733 mm Hg 72%
13:00 0°C° 0 mm 8 m/s 733 mm Hg 70%
14:00 -1°C° 0 mm 8 m/s 733 mm Hg 70%
15:00 -1°C° 0 mm 8 m/s 733 mm Hg 70%
16:00 -2°C° 0 mm 7 m/s 733 mm Hg 70%
17:00 -2°C° 0 mm 7 m/s 733 mm Hg 71%
18:00 -3°C° 0 mm 7 m/s 733 mm Hg 71%
19:00 -3°C° 0 mm 7 m/s 733 mm Hg 72%
20:00 -4°C° 0 mm 7 m/s 733 mm Hg 73%
21:00 -4°C° 0 mm 7 m/s 733 mm Hg 74%
22:00 -4°C° 0 mm 6 m/s 733 mm Hg 75%
23:00 -4°C° 0 mm 6 m/s 733 mm Hg 75%

8 Dicembre, Martedi

Tempo Temperatura Precipitazioni Vento Pressione Umidità
00:00 -4°C° 0 mm 6 m/s 733 mm Hg 75%
01:00 -4°C° 0 mm 6 m/s 733 mm Hg 75%
02:00 -4°C° 0 mm 6 m/s 733 mm Hg 76%
03:00 -3°C° 0 mm 6 m/s 733 mm Hg 77%
04:00 -3°C° 0 mm 6 m/s 733 mm Hg 78%
05:00 -2°C° 0.2 mm 5 m/s 733 mm Hg 82%
06:00 -2°C° 0.2 mm 5 m/s 733 mm Hg 86%
07:00 -2°C° 0.2 mm 5 m/s 733 mm Hg 90%
08:00 -2°C° 0.4 mm 4 m/s 733 mm Hg 91%
09:00 -1°C° 0.4 mm 4 m/s 733 mm Hg 92%
10:00 -1°C° 0.4 mm 4 m/s 734 mm Hg 93%
11:00 0°C° 0.1 mm 4 m/s 734 mm Hg 92%
12:00 +1°C° 0.1 mm 4 m/s 734 mm Hg 91%
13:00 +3°C° 0.1 mm 4 m/s 734 mm Hg 90%
14:00 +1°C° 0 mm 4 m/s 734 mm Hg 90%
15:00 +1°C° 0 mm 5 m/s 734 mm Hg 91%
16:00 0°C° 0 mm 5 m/s 734 mm Hg 92%
17:00 0°C° 0 mm 5 m/s 734 mm Hg 92%
18:00 -1°C° 0 mm 4 m/s 734 mm Hg 93%
19:00 -1°C° 0 mm 4 m/s 735 mm Hg 94%
20:00 -1°C° 0 mm 4 m/s 735 mm Hg 94%
21:00 -1°C° 0 mm 4 m/s 735 mm Hg 94%
22:00 -2°C° 0 mm 4 m/s 735 mm Hg 95%
23:00 -2°C° 0 mm 4 m/s 735 mm Hg 95%

9 Dicembre, Mercoledi

Tempo Temperatura Precipitazioni Vento Pressione Umidità
00:00 -2°C° 0 mm 4 m/s 735 mm Hg 95%
01:00 -2°C° 0 mm 4 m/s 735 mm Hg 95%
02:00 -2°C° 0 mm 5 m/s 735 mm Hg 95%
03:00 -2°C° 0 mm 5 m/s 735 mm Hg 95%
04:00 -2°C° 0 mm 5 m/s 734 mm Hg 94%
05:00 -3°C° 0 mm 6 m/s 735 mm Hg 94%
06:00 -3°C° 0 mm 6 m/s 735 mm Hg 94%
07:00 -3°C° 0 mm 6 m/s 735 mm Hg 94%
08:00 -3°C° 0 mm 6 m/s 735 mm Hg 92%
09:00 -2°C° 0 mm 7 m/s 735 mm Hg 90%
10:00 -1°C° 0 mm 7 m/s 735 mm Hg 88%
11:00 -1°C° 0 mm 7 m/s 735 mm Hg 86%
12:00 0°C° 0 mm 7 m/s 734 mm Hg 84%
13:00 +1°C° 0 mm 6 m/s 734 mm Hg 82%
14:00 +1°C° 0 mm 6 m/s 734 mm Hg 84%
15:00 +1°C° 0 mm 6 m/s 734 mm Hg 87%
16:00 -1°C° 0 mm 6 m/s 734 mm Hg 89%
17:00 -1°C° 0 mm 6 m/s 734 mm Hg 90%
18:00 -1°C° 0 mm 6 m/s 734 mm Hg 91%
19:00 -1°C° 0 mm 6 m/s 734 mm Hg 92%
20:00 0°C° 0 mm 5 m/s 734 mm Hg 92%
21:00 0°C° 0 mm 5 m/s 734 mm Hg 93%
22:00 -1°C° 0 mm 4 m/s 734 mm Hg 94%
23:00 -1°C° 0 mm 4 m/s 734 mm Hg 94%

10 Dicembre, Giovedi

Tempo Temperatura Precipitazioni Vento Pressione Umidità
00:00 0°C° 0 mm 4 m/s 734 mm Hg 95%
01:00 0°C° 0 mm 4 m/s 733 mm Hg 96%
02:00 0°C° 0 mm 4 m/s 733 mm Hg 96%
03:00 0°C° 0 mm 4 m/s 733 mm Hg 96%
04:00 0°C° 0 mm 4 m/s 733 mm Hg 96%
05:00 0°C° 0.1 mm 4 m/s 733 mm Hg 96%
06:00 +1°C° 0.1 mm 3 m/s 733 mm Hg 95%
07:00 +1°C° 0.1 mm 3 m/s 733 mm Hg 94%
08:00 +1°C° 0 mm 3 m/s 733 mm Hg 91%
09:00 +2°C° 0 mm 3 m/s 732 mm Hg 88%
10:00 +2°C° 0 mm 3 m/s 732 mm Hg 85%
11:00 +2°C° 0 mm 3 m/s 732 mm Hg 85%
12:00 +3°C° 0 mm 4 m/s 732 mm Hg 84%
13:00 +4°C° 0 mm 4 m/s 731 mm Hg 84%
14:00 +3°C° 0 mm 4 m/s 731 mm Hg 87%
15:00 +3°C° 0 mm 4 m/s 731 mm Hg 90%
16:00 +3°C° 0 mm 3 m/s 731 mm Hg 93%
17:00 +3°C° 0 mm 3 m/s 730 mm Hg 93%
18:00 +3°C° 0 mm 3 m/s 730 mm Hg 94%
19:00 +4°C° 0 mm 3 m/s 730 mm Hg 94%
20:00 +4°C° 0.4 mm 3 m/s 729 mm Hg 95%
21:00 +4°C° 0.4 mm 4 m/s 729 mm Hg 96%
22:00 +4°C° 0.4 mm 4 m/s 729 mm Hg 97%
23:00 +5°C° 0.2 mm 4 m/s 728 mm Hg 97%
Mostrare altro

Abbiamo bisogno del tuo consenso

Meteoprog e i nostri fornitori di servizi possono memorizzare e accedere a dati personali come cookie, identificatori di dispositivi o altre tecnologie simili sul tuo dispositivo e possono elaborare tali dati per personalizzare i contenuti e gli annunci, nonché fornire funzionalità dei social media e analizzarne il traffico.

  • Archiviare e/o accedere alle informazioni sul tuo dispositivo

    Cookie, identificatori di dispositivi o altre informazioni possono essere memorizzati o resi accessibili sul tuo dispositivo per le finalità sopra indicate.

  • Annunci e contenuti personalizzati, misurazione di annunci e contenuti, approfondimenti sul pubblico e sviluppo di prodotti

    Gli annunci e i contenuti possono essere personalizzati in base a un profilo. È possibile aggiungere più dati per personalizzare meglio annunci e contenuti. È possibile misurare il rendimento degli annunci e dei contenuti. È possibile ricavare informazioni sul pubblico che ha visto gli annunci e i contenuti. Tali dati possono essere utilizzati per sviluppare o migliorare l'esperienza, i sistemi e il software dell'utente.

Cliccando su “Accetto”, acconsenti all'uso di cookie, identificatori di dispositivo, web beacon o altre tecnologie simili. Puoi modificare le impostazioni nel browser del tuo dispositivo.

Per determinati scopi, è possibile fare affidamento su interessi legali, piuttosto che sul consenso. Puoi approfondire questo argomento consultando la nostra Informativa sulla privacy e sui cookie.